COSMOS 371

Satellite information

Favourite Embed

Satellite Type and Status

PAYLOADIN ORBIT

Key statistics

Satellite COSMOS 371 at a glance.

Uptime

19992

Days in orbit

Revolutions

≈ 14.6

Per day

Orbit

LEO

Low Earth Orbit

Inclination

74.0

Latest

Satellite identification and parameters

Extended collection of information and parameters for COSMOS 371.

Object identification

Identified? True

Debris? False

Object name: COSMOS 371

International designator: 1970-083A

Object number (NORAD): 4578

Object ID (CCSDS): 4578

Country: COMMONWEALTH OF INDEPENDENT STATES (CIS)

Current information (Y/N): Y

RCS size: LARGE

Orbital parameters

Period: 98.933 minutes

Inclination: 73.9981 deg

SMA: 7085.77 km

Apoapsis: 709.603 km

Periapsis: 705.667 km

RAAN: 110.7983 deg

Eccentricy: 0.0002777

Argument of periapsis: 207.571 deg

Mean anomaly: 152.5307 deg

Mean motion: 14.55533399 rev/day

Mean motion (dot): 0.00000222 rev/day2

B* drag term: 0.00005753 1/REarth

Two-line elements (TLE)

Creation date: July 6, 2025, 6:05 p.m.

Reference frame: TEME

Reference center: EARTH

Epoch: July 6, 2025, 5:49 a.m. UTC

TLE line 0: 0 COSMOS 371

TLE line 1: 1 04578U 70083A 25187.24290001 .00000222 00000-0 57530-4 0 9993

TLE line 2: 2 04578 73.9981 110.7983 0002777 207.5710 152.5307 14.55533399895256

Live tracking on map

Real-time ground track for satellite COSMOS 371.

In-orbit conjunctions

A list of the most updated potential collisions computed for object COSMOS 371.

Target Orbit TCA Probability of collision Miss distance Type
COSMOS 2251 DEB LEO 2025-04-29 03:29:42 0.0001474415 960.0 (m) DEBRIS
CZ-6A DEB SSO 2024-11-11 21:42:35 0.0003842197 543.0 (m) DEBRIS
CZ-4 DEB SSO 2024-08-29 15:34:23 0.0001389157 220.0 (m) DEBRIS
FENGYUN 1C DEB SSO 2024-07-21 10:17:22 0.0001892605 509.0 (m) DEBRIS
NOAA 16 DEB SSO 2024-06-09 21:46:58 0.0002506005 170.0 (m) DEBRIS

Associated space launch

The first soviet navigation system called Tsiklon consisted of Zaliv satellites in low earth orbit.

COSMOS 371 was lifted into orbit during the mission ‘Kosmos-3M | Zaliv 6’, on board a Kosmos-3M space rocket.

The launch took place on Oct. 12, 1970, 1:57 p.m. from 132/1 (132L).

For more information about the launch, click the button.

Launch to space Kosmos-3M | Zaliv 6
Kosmos-3M | Zaliv 6

Agency: N/A

Status: Launch Successful

Launch date: Oct. 12, 1970, 1:57 p.m. UTC

Rocket: Kosmos-3M

Launch pad: 132/1 (132L)

Location: Plesetsk Cosmodrome, Russian Federation

...

Latest news about this satellite

There are no fresh news available about this satellite. Check back as we update our databases every day.


Newsletter sign-up

Weekly statistics, charts and insights to help you stay on top of the space industry.